• In Moldova, Republic
  • List of Countries
  • For 7 days
  • Water Temperature
  • Satellite Maps
  • Weather Map
  • Weather Widgets
  • user-avatar
    Login

    Hourly Weather Kalgoorlie

    Today, 24 March, Friday

    Time Temperature Precipitation Wind Pressure Humidity
    00:00 +21°C° 0 mm 2 mps 727 mmHg 81%
    01:00 +20°C° 0 mm 2 mps 727 mmHg 79%
    02:00 +20°C° 0 mm 2 mps 727 mmHg 79%
    03:00 +20°C° 0 mm 2 mps 727 mmHg 78%
    04:00 +20°C° 0 mm 2 mps 727 mmHg 78%
    05:00 +20°C° 0 mm 2 mps 727 mmHg 77%
    06:00 +20°C° 0 mm 2 mps 728 mmHg 75%
    07:00 +20°C° 0 mm 3 mps 728 mmHg 72%
    08:00 +21°C° 0 mm 4 mps 728 mmHg 67%
    09:00 +22°C° 0.1 mm 4 mps 728 mmHg 63%
    10:00 +23°C° 0.1 mm 4 mps 728 mmHg 60%
    11:00 +25°C° 0.1 mm 3 mps 728 mmHg 57%
    12:00 +25°C° 0.3 mm 3 mps 728 mmHg 58%
    13:00 +25°C° 0.3 mm 3 mps 728 mmHg 59%
    14:00 +24°C° 0 mm 3 mps 728 mmHg 59%
    15:00 +24°C° 0.3 mm 3 mps 727 mmHg 61%
    16:00 +24°C° 0.3 mm 3 mps 727 mmHg 63%
    17:00 +24°C° 0.3 mm 3 mps 727 mmHg 66%
    18:00 +22°C° 0.2 mm 3 mps 727 mmHg 69%
    19:00 +22°C° 0.2 mm 3 mps 728 mmHg 72%
    20:00 +22°C° 0.2 mm 4 mps 728 mmHg 75%
    21:00 +21°C° 0.4 mm 4 mps 728 mmHg 77%
    22:00 +21°C° 0.4 mm 5 mps 728 mmHg 79%
    23:00 +21°C° 0.4 mm 5 mps 728 mmHg 80%

    Tomorrow, 25 March, Saturday

    Time Temperature Precipitation Wind Pressure Humidity
    00:00 +21°C° 0.6 mm 5 mps 727 mmHg 81%
    01:00 +20°C° 0.6 mm 6 mps 727 mmHg 81%
    02:00 +20°C° 0.6 mm 6 mps 727 mmHg 81%
    03:00 +20°C° 0.5 mm 6 mps 726 mmHg 84%
    04:00 +20°C° 0.5 mm 6 mps 726 mmHg 86%
    05:00 +18°C° 0.5 mm 7 mps 726 mmHg 89%
    06:00 +19°C° 0.7 mm 6 mps 726 mmHg 89%
    07:00 +19°C° 0.7 mm 6 mps 726 mmHg 89%
    08:00 +20°C° 0.7 mm 6 mps 726 mmHg 90%
    09:00 +20°C° 0.4 mm 6 mps 726 mmHg 88%
    10:00 +20°C° 0.4 mm 6 mps 726 mmHg 87%
    11:00 +21°C° 0.4 mm 6 mps 726 mmHg 86%
    12:00 +21°C° 0.1 mm 6 mps 725 mmHg 83%
    13:00 +22°C° 0.1 mm 6 mps 725 mmHg 80%
    14:00 +23°C° 0.1 mm 7 mps 724 mmHg 78%
    15:00 +22°C° 0.3 mm 6 mps 724 mmHg 80%
    16:00 +22°C° 0.3 mm 6 mps 724 mmHg 83%
    17:00 +22°C° 0.3 mm 6 mps 724 mmHg 85%
    18:00 +21°C° 0.2 mm 5 mps 724 mmHg 87%
    19:00 +21°C° 0.2 mm 5 mps 724 mmHg 88%
    20:00 +21°C° 0.2 mm 5 mps 724 mmHg 90%
    21:00 +21°C° 0.1 mm 4 mps 724 mmHg 91%
    22:00 +21°C° 0.1 mm 3 mps 724 mmHg 91%
    23:00 +21°C° 0.1 mm 3 mps 724 mmHg 92%

    Day after tomorrow, 26 March, Sunday

    Time Temperature Precipitation Wind Pressure Humidity
    00:00 +21°C° 0 mm 2 mps 724 mmHg 92%
    01:00 +21°C° 0 mm 2 mps 724 mmHg 93%
    02:00 +20°C° 0 mm 2 mps 723 mmHg 94%
    03:00 +20°C° 0 mm 2 mps 724 mmHg 94%
    04:00 +20°C° 0 mm 3 mps 724 mmHg 94%
    05:00 +20°C° 0 mm 3 mps 724 mmHg 94%
    06:00 +20°C° 0 mm 4 mps 724 mmHg 90%
    07:00 +21°C° 0 mm 6 mps 725 mmHg 85%
    08:00 +22°C° 0 mm 7 mps 726 mmHg 80%
    09:00 +23°C° 0 mm 7 mps 726 mmHg 71%
    10:00 +24°C° 0 mm 7 mps 726 mmHg 62%
    11:00 +26°C° 0 mm 7 mps 726 mmHg 53%
    12:00 +26°C° 0 mm 8 mps 726 mmHg 47%
    13:00 +27°C° 0 mm 8 mps 726 mmHg 41%
    14:00 +27°C° 0 mm 8 mps 726 mmHg 35%
    15:00 +27°C° 0 mm 8 mps 726 mmHg 39%
    16:00 +26°C° 0 mm 7 mps 727 mmHg 42%
    17:00 +24°C° 0 mm 7 mps 727 mmHg 45%
    18:00 +23°C° 0 mm 6 mps 728 mmHg 47%
    19:00 +21°C° 0 mm 5 mps 729 mmHg 48%
    20:00 +20°C° 0 mm 4 mps 730 mmHg 49%
    21:00 +19°C° 0 mm 4 mps 730 mmHg 51%
    22:00 +19°C° 0 mm 4 mps 731 mmHg 52%
    23:00 +18°C° 0 mm 4 mps 731 mmHg 53%

    27 March, Monday

    Time Temperature Precipitation Wind Pressure Humidity
    00:00 +17°C° 0 mm 4 mps 731 mmHg 55%
    01:00 +15°C° 0 mm 4 mps 732 mmHg 57%
    02:00 +15°C° 0 mm 4 mps 732 mmHg 59%
    03:00 +14°C° 0 mm 4 mps 732 mmHg 61%
    04:00 +14°C° 0 mm 4 mps 732 mmHg 64%
    05:00 +13°C° 0 mm 4 mps 733 mmHg 66%
    06:00 +13°C° 0 mm 4 mps 733 mmHg 64%
    07:00 +14°C° 0 mm 4 mps 734 mmHg 61%
    08:00 +14°C° 0 mm 4 mps 734 mmHg 59%
    09:00 +17°C° 0 mm 4 mps 734 mmHg 53%
    10:00 +18°C° 0 mm 3 mps 734 mmHg 47%
    11:00 +20°C° 0 mm 3 mps 734 mmHg 41%
    12:00 +21°C° 0 mm 3 mps 734 mmHg 37%
    13:00 +23°C° 0 mm 2 mps 733 mmHg 34%
    14:00 +24°C° 0 mm 2 mps 732 mmHg 31%
    15:00 +24°C° 0 mm 2 mps 732 mmHg 30%
    16:00 +24°C° 0 mm 2 mps 732 mmHg 30%
    17:00 +24°C° 0 mm 2 mps 732 mmHg 30%
    18:00 +23°C° 0 mm 2 mps 732 mmHg 34%
    19:00 +21°C° 0 mm 2 mps 732 mmHg 37%
    20:00 +19°C° 0 mm 2 mps 733 mmHg 40%
    21:00 +19°C° 0 mm 3 mps 733 mmHg 42%
    22:00 +18°C° 0 mm 3 mps 732 mmHg 44%
    23:00 +18°C° 0 mm 3 mps 732 mmHg 46%

    28 March, Tuesday

    Time Temperature Precipitation Wind Pressure Humidity
    00:00 +17°C° 0 mm 3 mps 732 mmHg 48%
    01:00 +17°C° 0 mm 3 mps 732 mmHg 50%
    02:00 +16°C° 0 mm 3 mps 731 mmHg 52%
    03:00 +16°C° 0 mm 3 mps 731 mmHg 53%
    04:00 +16°C° 0 mm 3 mps 731 mmHg 55%
    05:00 +14°C° 0 mm 3 mps 731 mmHg 56%
    06:00 +17°C° 0 mm 3 mps 731 mmHg 53%
    07:00 +18°C° 0 mm 3 mps 731 mmHg 51%
    08:00 +19°C° 0 mm 3 mps 732 mmHg 48%
    09:00 +21°C° 0 mm 3 mps 731 mmHg 43%
    10:00 +24°C° 0 mm 3 mps 731 mmHg 39%
    11:00 +26°C° 0 mm 4 mps 731 mmHg 34%
    12:00 +27°C° 0 mm 4 mps 730 mmHg 33%
    13:00 +28°C° 0 mm 4 mps 729 mmHg 31%
    14:00 +29°C° 0 mm 4 mps 728 mmHg 29%
    15:00 +29°C° 0 mm 3 mps 728 mmHg 31%
    16:00 +29°C° 0 mm 3 mps 728 mmHg 32%
    17:00 +29°C° 0 mm 2 mps 728 mmHg 33%
    18:00 +28°C° 0 mm 2 mps 728 mmHg 37%
    19:00 +26°C° 0 mm 2 mps 729 mmHg 41%
    20:00 +25°C° 0 mm 2 mps 729 mmHg 44%
    21:00 +24°C° 0 mm 3 mps 729 mmHg 44%
    22:00 +24°C° 0 mm 3 mps 729 mmHg 43%
    23:00 +22°C° 0 mm 3 mps 729 mmHg 43%

    29 March, Wednesday

    Time Temperature Precipitation Wind Pressure Humidity
    00:00 +21°C° 0 mm 4 mps 729 mmHg 48%
    01:00 +19°C° 0 mm 5 mps 729 mmHg 54%
    02:00 +17°C° 0 mm 6 mps 730 mmHg 60%
    03:00 +16°C° 0 mm 7 mps 730 mmHg 66%
    04:00 +15°C° 0 mm 7 mps 731 mmHg 73%
    05:00 +15°C° 0 mm 7 mps 731 mmHg 79%
    06:00 +15°C° 0 mm 7 mps 732 mmHg 76%
    07:00 +16°C° 0 mm 7 mps 733 mmHg 74%
    08:00 +16°C° 0 mm 7 mps 734 mmHg 71%
    09:00 +17°C° 0 mm 7 mps 734 mmHg 66%
    10:00 +20°C° 0 mm 7 mps 734 mmHg 60%
    11:00 +21°C° 0 mm 8 mps 734 mmHg 55%
    12:00 +22°C° 0 mm 7 mps 734 mmHg 49%
    13:00 +23°C° 0 mm 7 mps 733 mmHg 43%
    14:00 +23°C° 0 mm 7 mps 733 mmHg 37%
    15:00 +23°C° 0 mm 7 mps 733 mmHg 37%
    16:00 +22°C° 0 mm 7 mps 734 mmHg 36%
    17:00 +21°C° 0 mm 7 mps 734 mmHg 36%
    18:00 +20°C° 0 mm 7 mps 735 mmHg 41%
    19:00 +18°C° 0 mm 7 mps 735 mmHg 46%
    20:00 +16°C° 0 mm 7 mps 736 mmHg 51%
    21:00 +16°C° 0 mm 7 mps 736 mmHg 54%
    22:00 +15°C° 0 mm 7 mps 736 mmHg 57%
    23:00 +14°C° 0 mm 7 mps 737 mmHg 60%
    Show more